Weather Service Report


472 
ASUS41 KBOX 090410
RWRBOX

REGIONAL WEATHER ROUNDUP
NATIONAL WEATHER SERVICE TAUNTON MA
1100 PM EST THU DEC 08 2016

NOTE:  "FAIR" INDICATES FEW OR NO CLOUDS BELOW 12,000 FEET WITH NO 
SIGNIFICANT WEATHER AND/OR OBSTRUCTIONS TO VISIBILITY.

MAZALL-090500-
EASTERN MASSACHUSETTS
  
CITY           SKY/WX    TMP DP  RH WIND       PRES   REMARKS
BOSTON         CLEAR     35  19  52 W21G29    29.83S WCI  24          
BEVERLY        CLEAR     33  19  56 W10       29.81S WCI  25          
LAWRENCE       CLEAR     34  20  56 W10       29.82S WCI  26          
BEDFORD        CLEAR     32  16  51 W8        29.82S WCI  25          
BLUE HILL        N/A     30  17  58 W17G26    29.80S WCI  18          
NORWOOD        CLEAR     33  19  56 W8        29.85S WCI  26          
MARSHFIELD     CLEAR     34  23  64 VRB7G23   29.84R WCI  28          
PLYMOUTH       CLEAR     32  22  66 W8        29.85R WCI  25          
TAUNTON        CLEAR     32  21  64 W6        29.86R WCI  26          
NEW BEDFORD    CLEAR     35  22  58 W12       29.87R WCI  27          
$$

MAZALL-090500-
CAPE COD AND THE ISLANDS
  
CITY           SKY/WX    TMP DP  RH WIND       PRES   REMARKS
FALMOUTH       CLEAR     34  23  64 MISG      29.84S                  
HYANNIS        CLEAR     35  23  61 W12G17    29.83R WCI  27          
CHATHAM        CLEAR     37  25  61 W9        29.84R WCI  30          
PROVINCETOWN   CLEAR     37  24  59 W22G30    29.83R WCI  26          
NANTUCKET      CLOUDY    39  21  48 NW20G26   29.86R WCI  29          
MARTHAS VNYRD  PTCLDY    37  24  59 NW9       29.86R WCI  30          
$$
 
MAZALL-090500-
CENTRAL AND WESTERN MASSACHUSETTS
  
CITY           SKY/WX    TMP DP  RH WIND       PRES   REMARKS
WORCESTER      CLEAR     29  15  56 W21G28    29.79F WCI  16          
FITCHBURG      CLEAR     33  15  47 W10G21    29.82S WCI  25          
ORANGE         CLEAR     31  15  52 W6        29.85S WCI  25          
SPRINGFIELD    PTCLDY    32  16  50 W10       29.88R WCI  24          
WESTFIELD      CLEAR     31  18  58 S6        29.89R WCI  25          
NORTH ADAMS    CLOUDY    31  13  47 W18G25    29.86S WCI  19          
PITTSFIELD     CLOUDY    28  16  60 W16       29.83  WCI  16          
$$
 
RIZALL-090500-
RHODE ISLAND
  
CITY           SKY/WX    TMP DP  RH WIND       PRES   REMARKS
PROVIDENCE     PTCLDY    34  22  61 W7        29.88R WCI  28          
NEWPORT        PTCLDY    35  24  64 W10       29.87R WCI  27          
BLOCK ISLAND   CLEAR     37  22  54 NW12G26   29.90R WCI  29          
SMITHFIELD     CLEAR     32  19  58 W10G20    29.85R WCI  24          
WESTERLY       PTCLDY    36  18  48 VRB7      29.91R WCI  30          
$$
 
CTZALL-090500-
CONNECTICUT
  
CITY           SKY/WX    TMP DP  RH WIND       PRES   REMARKS
BRADLEY INTL   PTCLDY    33  17  51 W16       29.91R WCI  23          
HARTFORD       PTCLDY    34  21  59 W3        29.93R                  
BRIDGEPORT     NOT AVBL                                               
DANBURY        LGT SNOW  32  22  66 W12G17    29.94R WCI  23          
GROTON         CLEAR     38  23  55 NW10      29.91R WCI  31          
NEW HAVEN      CLEAR     36  21  54 NW9G17    29.94R WCI  29          
CHESTER        FAIR      34  19  55 VRB3      29.90S                  
MERIDEN        CLEAR     34  18  52 W5        29.93R WCI  30          
WILLIMANTIC    CLEAR     35  19  52 W5        29.90S WCI  31          
OXFORD         CLEAR     30  18  59 W6        29.92R WCI  24          
$$

MEZ002-015-021-024-NHZ003-005-008-011-012-014-VTZ005-008-090500-
NORTHERN NEW ENGLAND
  
CITY           SKY/WX    TMP DP  RH WIND       PRES   REMARKS
PORTLAND ME    CLEAR     31  23  72 SW7       29.75S WCI  24          
BANGOR ME      PTCLDY    27  22  81 SW3       29.66F                  
CONCORD NH     CLOUDY    33  21  61 W9        29.79S WCI  25          
MANCHESTER NH  PTCLDY    33  17  51 SW3       29.80R                  
NASHUA NH      CLEAR     32  19  58 W6        29.83R WCI  26          
PORTSMOUTH NH  PTCLDY    32  23  68 W9        29.77S WCI  24          
JAFFREY NH     CLEAR     29  14  53 MISG      29.79R                  
KEENE NH       CLEAR     31  18  58 SW8       29.84R WCI  23          
BURLINGTON VT  CLOUDY    33  19  56 W12       29.77F WCI  24          
MT. WASHINGTON BLWGSNOW   5   5 100 W63G75      N/A  VSB 0   WCI -26  
$$

NYZ052-076-090500-
EASTERN NEW YORK
  
CITY           SKY/WX    TMP DP  RH WIND       PRES   REMARKS
ALBANY         MOCLDY    31  14  49 W6        29.90R WCI  25          
NEW YORK CITY  PTCLDY    37  16  42 W17G23    29.99R WCI  27          
$$
 
ANZALL-090500-
MARINE OBSERVATIONS
  
STATION/POSITION TIME  TEMP    WIND        PRES    VSBY  WAVE
                       AIR SEA DIR/SP/G                  HT/PER
                 (UTC) (F)     (DEG/KT/KT) (MB)    (MI)  (FT/S)
BOSTON BUOY      0350   39 50  270/ 25/ 29 1008.5R         4/ 4
BUZZARDS BAY     0300   38     300/ 30/ 33 1011.5R
NANTUCKET SOUND  NOT AVBL
MASS BAY-STELLWA 0304   39 48  280/ 21/ 25 1008.8R  1 7/8  4/ 4
ISLE OF SHOALS   0300   36     270/ 19/ 20 1008.2S
S OF BLOCK IS    0355      54                N/A           7/ 6
$$

......................KEY.........................
  SKY/WX - SKY CONDITION/PRESENT WEATHER
  TMP    - TEMPERATURE IN FAHRENHEIT
  DWPT   - DEWPOINT IN FAHRENHEIT
  RH     - RELATIVE HUMIDITY IN PERCENT
  WIND   - DIRECTION AND SPEED IN MPH
  PRES   - MEAN SEA LEVEL PRESSURE IN INCHES OF HG
  WCI    - WIND CHILL INDEX
  VSB    - VISIBILITY IN MILES
  HX     - HEAT INDEX
  TC     - TEMPERATURE IN CELSIUS
  VRB    - VARIABLE WIND DIRECTION
  N/A    - NOT AVAILABLE
  

Return to Home page


Western Regional Climate Center, wrcc@dri.edu